Location: Aurora Center
(43.5271°N, 98.5894°W)
Time: 03:45:47
(UTC-05:00)

Courier 1B - All Passes

Search period start: 15 July 2024 00:00
Search period end: 25 July 2024 00:00
Orbit: 962 x 1209 km, 28.3° (Epoch: 14 July)

Date Brightness Start Highest point End Pass type
(mag) Time Alt. Az. Time Alt. Az. Time Alt. Az.
15 Jul - 15:38:39 10° S 15:42:05 14° SSE 15:45:25 10° SE daylight
15 Jul - 17:29:53 10° SW 17:35:06 22° S 17:40:07 10° SE daylight
15 Jul - 19:23:18 10° SW 19:28:09 20° S 19:32:51 10° SE daylight
15 Jul - 21:19:22 10° SW 21:20:58 11° SSW 21:22:33 10° S daylight
16 Jul - 14:46:25 10° S 14:48:27 11° SSE 14:50:29 10° SE daylight
16 Jul - 16:36:19 10° SW 16:41:28 20° S 16:46:25 10° SE daylight
16 Jul - 18:29:20 10° SW 18:34:34 22° S 18:39:35 10° SE daylight
16 Jul - 20:24:09 10° SW 20:27:28 14° SSW 20:30:43 10° S daylight
17 Jul - 15:42:53 10° SSW 15:47:49 19° SSE 15:52:35 10° SE daylight
17 Jul - 17:35:28 10° SW 17:40:56 23° S 17:46:11 10° SE daylight
17 Jul - 19:29:40 10° SW 19:33:56 17° SSW 19:38:04 10° SSE daylight
18 Jul - 14:49:40 10° SSW 14:54:09 17° SSE 14:58:32 10° SE daylight
18 Jul - 16:41:40 10° SW 16:47:17 23° S 16:52:39 10° SE daylight
18 Jul - 18:35:26 10° SW 18:40:21 20° SSW 18:45:05 10° SSE daylight
19 Jul - 13:56:46 10° S 14:00:30 14° SSE 14:04:10 10° SE daylight
19 Jul - 15:47:58 10° SW 15:53:36 23° S 15:59:01 10° SE daylight
19 Jul - 17:41:21 10° SW 17:46:45 22° S 17:51:54 10° SE daylight
19 Jul - 19:36:52 10° SW 19:39:38 13° SSW 19:42:20 10° S daylight
20 Jul - 13:04:35 10° S 13:06:50 11° SSE 13:09:05 10° SE daylight
20 Jul - 14:54:24 10° SW 14:59:54 21° S 15:05:14 10° ESE daylight
20 Jul - 16:47:22 10° SW 16:53:05 24° S 16:58:33 10° SE daylight
20 Jul - 18:42:01 10° SW 18:46:05 16° SSW 18:50:02 10° SSE daylight
21 Jul - 14:01:00 10° SSW 14:06:11 19° SSE 14:11:17 10° ESE daylight
21 Jul - 15:53:29 10° SW 15:59:24 24° S 16:05:04 10° SE daylight
21 Jul - 17:47:36 10° WSW 17:52:30 19° SSW 17:57:13 10° SSE daylight
22 Jul - 13:07:50 10° SSW 13:12:30 17° SSE 13:17:06 10° SE daylight
22 Jul - 14:59:42 10° SW 15:05:40 24° S 15:11:27 10° SE daylight
22 Jul - 16:53:24 10° WSW 16:58:51 22° SSW 17:04:06 10° SE daylight
22 Jul - 18:49:58 10° SW 18:51:45 11° SSW 18:53:28 10° SSW daylight
23 Jul - 12:15:04 10° S 12:18:49 14° SSE 12:22:33 10° SE daylight
23 Jul - 14:06:03 10° SW 14:11:55 23° S 14:17:41 10° ESE daylight
23 Jul - 15:59:20 10° WSW 16:05:10 24° S 16:10:49 10° SE daylight
23 Jul - 17:54:28 10° SW 17:58:10 14° SSW 18:01:48 10° S daylight
24 Jul - 11:23:14 10° SSE 11:25:10 11° SSE 11:27:06 10° SE daylight
24 Jul - 13:12:33 10° SW 13:18:12 22° SSE 13:23:47 10° ESE daylight
24 Jul - 15:05:23 10° SW 15:11:26 25° S 15:17:20 10° SE daylight
24 Jul - 16:59:50 10° WSW 17:04:34 18° SSW 17:09:10 10° SSE daylight
